Hourly Data Report for December 06, 2017

All times are specified in Local Standard Time (LST). Add 1 hour to adjust for Daylight Saving Time where and when it is observed.

VICTORIA INTL A
BRITISH COLUMBIA

48°38'50.000" N
123°25'33.000" W
19.50 m
1018621
71799
YYJ

Download Data

Hourly Data (December 2017)
Hourly Data Report for December 6, 2017
Temp Definition
°C
Dew Point Temp Definition
°C
Rel Hum Definition
%
Wind Dir Definition
10's deg

Wind Spd Definition
km/h
Visibility Definition
km
Stn Press Definition
kPa
Hmdx Definition


Wind Chill Definition


Weather Definition


TIME
00:00 Legend Double Dagger 1.8 1.1 95 25 13 19.3 103.72     LegendNANA
01:00 Legend Double Dagger 2.4 1.8 96 28 8 19.3 103.71     Mainly Clear
02:00 Legend Double Dagger 1.8 1.4 97 28 11 11.3 103.71     LegendNANA
03:00 Legend Double Dagger 2.1 1.4 96 28 12 11.3 103.72     LegendNANA
04:00 Legend Double Dagger 1.6 1.0 96 28 10 12.9 103.67     Mainly Clear
05:00 Legend Double Dagger 0.9 0.3 96 28 10 16.1 103.67     LegendNANA
06:00 Legend Double Dagger 1.4 0.8 96 28 8 19.3 103.65     LegendNANA
07:00 Legend Double Dagger 1.6 0.6 93 28 13 24.1 103.66     Clear
08:00 Legend Double Dagger 1.5 0.7 95 28 12 48.3 103.68     LegendNANA
09:00 Legend Double Dagger 2.5 1.6 94 30 11 48.3 103.71     LegendNANA
10:00 Legend Double Dagger 4.3 2.6 89 30 14 48.3 103.75     Clear
11:00 Legend Double Dagger 5.4 2.9 84 29 11 48.3 103.73     LegendNANA
12:00 Legend Double Dagger 6.6 3.3 79 30 11 48.3 103.65     LegendNANA
13:00 Legend Double Dagger 8.1 3.9 74 29 7 48.3 103.60     Clear
14:00 Legend Double Dagger 9.0 3.4 68 34 4 32.2 103.54     LegendNANA
15:00 Legend Double Dagger 8.7 3.5 70 30 9 48.3 103.52     LegendNANA
16:00 Legend Double Dagger 5.6 3.1 84 27 4 48.3 103.49     Clear
17:00 Legend Double Dagger 3.2 1.8 90 27 4 48.3 103.47     LegendNANA
18:00 Legend Double Dagger 2.2 0.2 87 30 8 48.3 103.47     LegendNANA
19:00 Legend Double Dagger 3.2 2.4 95 27 8 48.3 103.46     Clear
20:00 Legend Double Dagger 2.7 1.8 93 30 10 48.3 103.46     LegendNANA
21:00 Legend Double Dagger 2.0 1.4 95 30 7 32.2 103.44     LegendNANA
22:00 Legend Double Dagger 1.0 0.5 96 30 8 24.1 103.43     Clear
23:00 Legend Double Dagger 1.4 1.1 98 28 10 19.3 103.42     LegendNANA

Notes on Data Quality.

Legend

  • E = Estimated
  • M = Missing
  • NA = Not Available
  • ‡ = Partner data that is not subject to review by the National Climate Archives
Date modified: